Location: Unspecified
(0.0000°N, 0.0000°E)
Time: 11:20:31
(UTC+00:00)

ITAMSAT 1 - Pass Details

Date: 30 September 2021
Orbit: 783 x 797 km, 98.9° (Epoch: 15 October)

Event Time Altitude Azimuth Distance (km) Brightness Sun altitude
Rises 19:46:32 0° 196° (SSW) 3,288 11.1 -29.1°
Reaches altitude 10° 19:49:32 10° 214° (SW) 2,354 10.5 -29.9°
Maximum altitude 19:53:02 19° 257° (WSW) 1,828 10.2 -30.8°
Drops below altitude 10° 19:56:32 10° 300° (WNW) 2,342 10.7 -31.6°
Sets 19:59:32 0° 318° (NW) 3,264 11.3 -32.4°
